Regional Weather Roundup
Issued by NWS

Home | Current Version | Previous Version | Graphics & Text | Print | Product List | Glossary On
Versions: 1 2 3 4 5 6 7 8 9 10 11 12 13 14 15 16 17 18 19 20 21 22 23 24 25 26 27 28 29 30 31 32 33 34 35 36 37 38 39 40 41 42 43 44 45 46 47 48 49 50
000
ASUS45 KTFX 010604
RWRMT
MONTANA HOURLY WEATHER ROUNDUP
NATIONAL WEATHER SERVICE GREAT FALLS MT
1204 AM MDT MON SEP 1 2014

NOTE: "FAIR" INDICATES FEW OR NO CLOUDS BELOW 12000 FEET WITH NO
SIGNIFICANT WEATHER AND/OR OBSTRUCTIONS TO VISIBILITY.

* THESE STATIONS ARE NOT UNDER NWS QUALITY CONTROL. THEY DO NOT
   REPORT WEATHER SUCH AS PRECIPITATION OR FOG.

MTZ001>007-043-010700-
WEST OF THE DIVIDE
CITY           SKY/WX    TMP DP  RH WIND       PRES   REMARKS
KALISPELL      LGT RAIN  52  48  86 CALM      29.97S
MISSOULA       PTCLDY    50  43  77 N7        30.02R
BUTTE          MOCLDY    48  37  66 NW5       30.04R
MULLAN PASS    PTCLDY    43  36  76 VRB7      30.05F
* LINCOLN      N/A       49  37  63 S4G9       N/A
* LOOKOUT PASS N/A       47  39  74 VRB2       N/A
* POLSON       N/A       51  46  83 SW1        N/A
* RONAN APT    MOCLDY    55  46  72 N/A        N/A
* SEELEY LAKE  N/A       42  40  93 NE1        N/A
* THOMP F APT  PTCLDY    46  37  71 NE5        N/A
$$

MTZ008-052>055-010700-
SOUTHWEST MONTANA
CITY           SKY/WX    TMP DP  RH WIND       PRES   REMARKS
BOZEMAN        MOCLDY    52  46  80 S6        29.99R
DILLON         CLOUDY    52  39  61 E5        29.99R
W YELLOWSTONE  PTCLDY    45  39  80 SE3       30.07F
* THREE FORKS  CLOUDY    54  34  47 N/A        N/A
* BOULDER HILL N/A       49  31  50 N4G10      N/A
* MONIDA PASS  N/A       46  40  80 SE9        N/A
* RAYNOLDS PAS N/A       45  26  47 SE16       N/A
* WHITEHALL    N/A       56  41  57 NW5        N/A
* WISE RIVER   N/A       45  34  65 S3         N/A
$$

MTZ009>010-012-014-046-048-049-054-010700-
EAST SLOPES AND CENTRAL MONTANA
CITY           SKY/WX    TMP DP  RH WIND       PRES   REMARKS
CUT BANK       MOCLDY    54  39  57 W15       29.90R
GREAT FALLS    MOCLDY    54  39  57 W10       29.91S
HELENA         CLOUDY    57  39  51 SW13      29.97S
MALMSTROM AFB  MOCLDY    55  39  55 SW9       29.93S
* CONRAD       CLOUDY    55  43  64 SW11G18    N/A
* EAST GLACIER N/A       49  39  69 W16G22     N/A
* MONARCH      N/A       42  40  93 S8         N/A
* PENDROY      N/A       50  39  66 W13        N/A
* ROGERS PASS  N/A       48  34  59 E9G15      N/A
* SAINT MARY   N/A       51  41  69 S6G13      N/A
* SWEET GRASS  N/A       52  39  61 W15G20     N/A
$$

MTZ011-013-016-021-035-040-045-047-050-051-010700-
NORTH CENTRAL MONTANA
CITY           SKY/WX    TMP DP  RH WIND       PRES   REMARKS
HAVRE          CLOUDY    55  46  72 CALM      29.85S
LEWISTOWN      CLOUDY    55  43  64 W9        29.95R
* CHESTER      N/A       55  40  57 W5         N/A
* DENTON       N/A       54  43  67 SW6        N/A
* GEYSER       N/A       50  42  74 SW10       N/A
* JUDITH GAP   N/A       48  43  83 NE4        N/A
* LOMA         N/A       57  41  55 SW6        N/A
$$

MTZ017>020-022>027-061-062-010700-
NORTHEAST MONTANA
CITY           SKY/WX    TMP DP  RH WIND       PRES   REMARKS
GLASGOW        PTCLDY    54  46  74 NE12      29.80R
GLENDIVE       MOCLDY    55  46  72 NW12      29.82R
JORDAN         MOCLDY    57  48  72 NW6       29.83R
SIDNEY         PTCLDY    52  48  86 CALM      29.78S
WOLF POINT     PTCLDY    57  48  72 N10       29.80R
* BEAVER HILL  N/A       54  45  72 S11        N/A
* CIRCLE       N/A       58  48  70 N/A        N/A
* LINDSAY DVD  N/A       54  44  69 NW6G12     N/A
* NAVAJO       N/A       52  48  86 N8         N/A
$$

MTZ028>042-056>058-010700-
SOUTHCENTRAL AND SOUTHEAST MONTANA
CITY           SKY/WX    TMP DP  RH WIND       PRES   REMARKS
BAKER          PTCLDY    54  46  74 SW5       29.84S
BILLINGS       MOCLDY    57  48  72 SW14      29.93S
LIVINGSTON     PTCLDY    46  43  89 W3        29.98S
MILES CITY     PTCLDY    61  45  56 W9        29.83S
* LAUREL APT   MOCLDY    54  45  72 N/A        N/A
* ROUNDUP APT  MOCLDY    54  45  72 N/A        N/A
* ALZADA       N/A       49  47  93 E2         N/A
* HYSHAM       N/A       58  40  51 W4         N/A
* LAME DEER    N/A       55  39  55 W9         N/A
* REED POINT   N/A       54  45  72 W1         N/A
* ROSCOE HILL  N/A       51  35  54 SW6G11     N/A
$$

REGIONAL REPORTS...DAKOTAS
CITY           SKY/WX    TMP DP  RH WIND       PRES   REMARKS
WILLISTON      MOCLDY    54  52  93 NW7       29.77R
DICKINSON      PTCLDY    52  48  86 W8        29.78S
BEACH          N/A       50  50 100 CALM      29.81F
CROSBY         CLEAR     50  50 100 NW10      29.77R
TIOGA          CLEAR     48  48 100 CALM      29.78S
WATFORD CITY   CLEAR     50  50 100 SW6       29.74F
BISMARCK       CLOUDY    59  57  93 SW3       29.74F
GRAND FORKS    PTCLDY    55  54  96 W7        29.66R
FARGO          CLOUDY    57  55  93 W6        29.65F
BUFFALO SD     CLEAR     48  46  93 W10       29.79S
RAPID CITY     CLEAR     52  48  86 W9        29.88F
$$

REGIONAL REPORTS...WYOMING/IDAHO/WASHINGTON
CITY           SKY/WX    TMP DP  RH WIND       PRES   REMARKS
GILLETTE       MOCLDY    50  45  83 W8        29.94F
SHERIDAN       PTCLDY    50  45  83 S5        29.95F
CODY           MOCLDY    55  45  69 NW9       30.00S
YELLOWSTONE LA CLOUDY    39  36  89 CALM      30.17S
SALMON         MOCLDY    59  39  48 N13       29.97R
MULLAN PASS    PTCLDY    43  36  76 VRB7      30.05S
SAND POINT     CLOUDY    55  50  83 N3        29.96R
SPOKANE        FAIR      59  37  44 S8        29.95F

$$




USA.gov is the U.S. government's official web portal to all federal, state and local government web resources and services.